SPACEBEENZ-8 (48891 NORAD) Tracking and Keplerian Element Data

This shows tracking and keplerian element data for the satellite.

Feedback or suggestion? Click here.




ElementValue
Catalog48891
NameSPACEBEENZ-8
Epoch Orbit1674
Epoch Day287.5924096
Epoch Year2021
RAAN54.8002
Inclination97.528
Eccentricity0.0008477
Argument of Perigee228.9471
Mean Anonmoly131.1028
Mean Motion15.12605359
Decay Rate4.315E-05
L11 48891U 21059N 21287.59240960 .00004315 00000-0 25070-3 0 9992
L22 48891 97.5280 54.8002 0008477 228.9471 131.1028 15.12605359 16742

Live tracking and technical data element details for SPACEBEENZ-8 (NORAD 48891). SPACEBEENZ-8 can be tracked NOW for your location showing map with azimuth and elevation plus other details from your city location.

Track the satellite on the map from your city or location and see movement details for azimuth, elevation, latitude, longitude, range, height, and movement on the map or in text.







IsCatalogInMostPopularTable: catalog: 48891, numindb: 19
Update: records affected: 1



GetName: 48891 SPACEBEENZ-8

Hit Count: updated at: Tue, 19 Oct 2021 08:29:19 GMT